Regional Weather Roundup
Issued by NWS

Home | Current Version | Previous Version | Graphics & Text | Print | Product List | Glossary On
Versions: 1 2 3 4 5 6 7 8 9 10 11 12 13 14 15 16 17 18 19 20 21 22 23 24 25 26 27 28 29 30 31 32 33 34 35 36 37 38 39 40 41 42 43 44 45 46 47 48 49 50
000
ASUS43 KMPX 290410
RWRMN
WEATHER ROUNDUP FOR MINNESOTA
NATIONAL WEATHER SERVICE TWIN CITIES/CHANHASSEN MN
1000 PM CST WED JAN 28 2015


NOTE: "FAIR" INDICATES FEW OR NO CLOUDS BELOW 12,000 FEET WITH NO
SIGNIFICANT WEATHER AND/OR OBSTRUCTIONS TO VISIBILITY. N/A MEANS
CURRENT SKY AND/OR WEATHER CONDITIONS ARE NOT AVAILABLE.

MNZ060>063-068>070-290500-
   Twin Cities Metro

CITY           SKY/WX    TMP DP  RH WIND       PRES   REMARKS
TWIN CITIES    CLOUDY    31  29  92 N7        29.84R FOG     WCI  24
ST PAUL        CLOUDY    31  29  92 N6        29.85S FOG     WCI  25
CRYSTAL        CLOUDY    31  29  92 N7        29.84R FOG     WCI  24
BLAINE         CLOUDY    32  32 100 N6        29.84S FOG     WCI  26
LAKEVILLE      CLOUDY    28  28 100 N6        29.82S FOG     WCI  22
EDEN PRAIRIE   CLOUDY    31  29  92 N5        29.83R FOG     WCI  26
SOUTH ST PAUL  CLOUDY    31  30  96 N3        29.83S FOG
LAKE ELMO      CLOUDY    32  30  93 N3        29.84S FOG
$$
MNZ001>005-007-008-013>017-022>024-027-028-290500-
   Northwest Minnesota

CITY           SKY/WX    TMP DP  RH WIND       PRES   REMARKS
BEMIDJI        CLOUDY    32  31  95 NW14G20   29.86S WCI  22
HALLOCK        CLOUDY    19  18  93 NW23G31   30.04R WCI   2
ROSEAU         CLOUDY    30  27  86 NW14      29.94R WCI  20
WARROAD        CLOUDY    30  27  86 NW13      29.93R WCI  20
THIEF RVR FALL CLOUDY    25  23  93 NW18      29.97R WCI  11
CROOKSTON      CLOUDY    25  25 100 N22G31    30.02R WCI  10
FOSSTON        CLOUDY    27  27 100 NW18G25   29.94R FOG     WCI  13
DETROIT LAKES  CLOUDY    32  30  93 NW20G29   29.93R FOG     WCI  20
MOORHEAD       CLOUDY    30  30 100 N24       30.00R WCI  16
PARK RAPIDS    CLOUDY    32  31  96 N13       29.85R WCI  22
MAHNOMEN       CLOUDY    28  27  96 NW24      29.93R FOG     WCI  14
$$
MNZ006-009>011-018-025>026-290500-
   North Central Minnesota

CITY           SKY/WX    TMP DP  RH WIND       PRES   REMARKS
BAUDETTE       CLOUDY    30  27  88 NW17      29.88R WCI  18
FLAG ISLAND    CLOUDY    28  27  93 NW18      29.90R WCI  16
INTL FALLS     CLOUDY    28  26  92 W5        29.82S FOG     WCI  23
WASKISH        CLOUDY    30  30 100 NW9G17    29.87R WCI  22
BIG FORK       LGT SNOW  30  28  93 W5        29.83S WCI  25
LONGVILLE      MIX PCPN  30  28  93 W3        29.84S
GRAND RAPIDS   CLOUDY    27  27 100 CALM      29.82S
CRANE LAKE     CLOUDY    25  25 100 CALM      29.84S FOG
ORR            CLOUDY    27  25  93 CALM      29.80R FOG
COOK           CLOUDY    27  27 100 W5        29.82S FOG     WCI  21
WALKER         CLOUDY    31  31  99 NW6       29.85R FOG     WCI  26
$$
MNZ012-019>021-037-290500-
   Northeast Minnesota

CITY           SKY/WX    TMP DP  RH WIND       PRES   REMARKS
DULUTH         FRZ DRZL  28  25  88 W7        29.80F FOG     WCI  21
ELY            CLOUDY    25  25 100 W3        29.80S FOG
HIBBING        CLOUDY    28  25  88 W3        29.81F FOG
EVELETH        CLOUDY    28  28 100 W5        29.82S FOG     WCI  23
DULUTH HARBOR  CLOUDY    30  27  86 CALM      29.85F
TWO HARBORS    CLOUDY    30  25  80 CALM      29.80S
SILVER BAY     CLOUDY    28  25  86 CALM      29.79F
GRAND MARAIS     N/A     30  25  81 W5        29.81F WCI  25
G MARAIS ARPRT   N/A     25  21  86 SW6       29.76F FOG     WCI  18
$$
MNZ029>031-032-039>041-046>048-054>057-064-290500-
   West Central Minnesota

CITY           SKY/WX    TMP DP  RH WIND       PRES   REMARKS
FERGUS FALLS   CLOUDY    30  30 100 N24G30    29.96R FOG     WCI  16
WHEATON        CLOUDY    30  28  93 NW22G29   29.99R WCI  17
MORRIS         CLOUDY    34  32  93 NW25      29.90R WCI  21
ALEXANDRIA     CLOUDY    32  31  96 NW13      29.88R FOG     WCI  22
ELBOW LAKE     CLOUDY    31  31 100 N30G36    29.91R WCI  17
WADENA         CLOUDY    30  30 100 NW13      29.87R WCI  20
GLENWOOD       CLOUDY    32  30  93 NW10      29.88R FOG     WCI  24
APPLETON       CLOUDY    34  32  93 N23G29    29.92R WCI  22
BENSON         CLOUDY    34  32  93 N17G23    29.90R FOG     WCI  23
ORTONVILLE     CLOUDY    34  30  86 NW21G28   29.94R WCI  22
MADISON        CLOUDY    37  36  93 N24G33    29.93R
WILLMAR        CLOUDY    34  32  93 NW8       29.89R FOG     WCI  27
$$
MNZ033>034-036-042>043-049>051-058-059-290500-
   Central Minnesota

CITY           SKY/WX    TMP DP  RH WIND       PRES   REMARKS
ST CLOUD       CLOUDY    29  28  96 NW6       29.86R FOG     WCI  23
SAUK CENTRE    CLOUDY    31  31 100 NW6       29.87R FOG     WCI  25
PAYNESVILLE    CLOUDY    28  28 100 W3        29.87R FOG
AITKIN         HAZE      30  27  86 CALM      29.83S VSB 1
PINE RIVER     CLOUDY    28  28 100 CALM      29.88S FOG
BRAINERD       CLOUDY    29  28  96 W6        29.85S FOG     WCI  23
STAPLES        CLOUDY    30  30 100 W3        29.86S FOG
LONG PRAIRIE   CLOUDY    30  30 100 W3        29.87R FOG
LITTLE FALLS   CLOUDY    30  28  93 W3        29.87R FOG
LITCHFIELD     CLOUDY    30  30 100 N7        29.87R FOG     WCI  23
BUFFALO        CLOUDY    30  29  95 N5        29.86S FOG     WCI  25
MAPLE LAKE     CLOUDY    31  31  99 NW6       29.87R FOG     WCI  25
$$
MNZ037-044-045-052-053-290500-
   East Central Minnesota

CITY           SKY/WX    TMP DP  RH WIND       PRES   REMARKS
PRINCETON      CLOUDY    30  28  93 NW3       29.86R FOG
MORA           CLOUDY    28  28 100 NW5       29.86S VSB 1   WCI  23
CAMBRIDGE      HAZE      30  25  80 NW3       29.84R VSB 1
RUSH CITY      CLOUDY    29  28  97 CALM      29.85S FOG
MOOSE LAKE     CLOUDY    30  28  93 W3        29.82S FOG
HINCKLEY       FOG       30  30 100 CALM      29.84S VSB 1
CLOQUET        CLOUDY    28  27  93 W5        29.82S FOG     WCI  23
MCGREGOR       CLOUDY    30  28  93 CALM      29.84S VSB 1/2
$$
MNZ071>073-080-081-089-090-097-098-290500-
   Southwest Minnesota

CITY           SKY/WX    TMP DP  RH WIND       PRES   REMARKS
MONTEVIDEO     CLOUDY    34  34 100 N21G26    29.91R FOG     WCI  22
GRANITE FALLS  CLOUDY    32  32  99 NW9       29.91R FOG     WCI  24
CANBY          CLOUDY    33  32  95 NW20G29   29.94R WCI  22
MARSHALL       CLOUDY    34  28  80 N23       29.91R WCI  22
REDWOOD FALLS  CLOUDY    33  32  96 NW8       29.88R FOG     WCI  26
OLIVIA         CLOUDY    32  32 100 NW7       29.87R FOG     WCI  26
PIPESTONE      CLOUDY    34  32  93 N25G33    29.89R WCI  21
WINDOM         CLOUDY    34  34 100 NW17      29.85R FOG     WCI  23
WORTHINGTON    CLOUDY    34  30  86 N23G31    29.86R WCI  22
JACKSON        CLOUDY    34  32  93 NW15G28   29.83R FOG     WCI  24
TRACY          CLOUDY    33  33  98 NW17      29.89R FOG     WCI  22
SLAYTON        CLOUDY    32  32  99 NW18G26   29.87R FOG     WCI  21
$$
MNZ065>067-074>077-082>085-091>093-290500-
   South Central Minnesota

CITY           SKY/WX    TMP DP  RH WIND       PRES   REMARKS
MANKATO        CLOUDY    32  28  86 N8        29.82R WCI  25
NEW ULM        FOG       32  32 100 NW9       29.85R VSB 1   WCI  24
ST JAMES       CLOUDY    34  34 100 NW12      29.85R FOG     WCI  25
FAIRMONT       CLOUDY    34  28  80 NW15      29.80R WCI  24
GLENCOE        CLOUDY    32  32 100 N7        29.85R FOG     WCI  26
FARIBAULT      CLOUDY    32  30  93 N5        29.81R FOG     WCI  27
OWATONNA       MOCLDY    32  30  93 N3        29.80R FOG
WASECA         FOG       32  32 100 N6        29.81R VSB 1   WCI  26
ALBERT LEA     MIX PCPN  34  34 100 N3        29.77S
$$
MNZ078>079-086>088-094>096-290500-
   Southeast Minnesota

CITY           SKY/WX    TMP DP  RH WIND       PRES   REMARKS
ROCHESTER      CLOUDY    31  28  89 E3        29.77F FOG
RED WING       CLOUDY    30  28  93 CALM      29.81F FOG
STANTON        CLOUDY    32  30  93 N5        29.80S WCI  27
DODGE CENTER   MIX PCPN  32  30  93 N3        29.78R
WINONA         CLOUDY    34  28  80 SE3       29.81S
AUSTIN         CLOUDY    32  30  93 CALM      29.76F FOG
PRESTON        CLOUDY    31  27  88 CALM      29.77S
$$
ABBREVIATIONS USED IN REMARKS
   TC - TEMPERATURES IN CELSIUS
  WCI - WIND CHILL INDEX
   HX - HEAT INDEX
  VSB - VISIBILITY
$$


USA.gov is the U.S. government's official web portal to all federal, state and local government web resources and services.